Everett, WA
on Sunday, November 25, 2012

Sunday
Previous Day Next Day
Daily Summary
 ActualAverageRecord
Temperature
Mean Temperature °F °F  
Max Temperature 45°F 48°F 62°F (1957)
Min Temperature 35°F 34°F 0°F (1993)
Degree Days
Heating Degree Days 25    
Growing Degree Days0 (Base °F )  
Moisture
Dew Point 36°F   
Average Humidity 91    
Maximum Humidity 100    
Minimum Humidity 76    
Precipitation
Precipitation 0.00 in in in ()
Wind
Wind Speed 1 mph   
Max Wind Speed 7 mph   
Max Gust Speed mph   
Visibility 7 miles   
Events Fog   
Averages and records for this station are not official NWS values.
Key: T is trace of precipitation, MM is missing value
Source: NWS Daily Summary
Seasonal Weather Averages
Time(PST)TemperatureDew PointHumidity Pressure Visibility Wind DirectionWind SpeedGust SpeedPrecipitationEvents Conditions
12:42 AM 42.8°F 39.2°F 87% 30.26 in 10.0 miles Calm Calm - N/A   Overcast
12:53 AM 41.0°F 37.9°F 89% 30.28 in 10.0 miles Calm Calm - N/A   Overcast
1:14 AM 42.8°F 39.2°F 87% 30.27 in 10.0 miles Calm Calm - N/A   Overcast
1:24 AM 42.8°F 39.2°F 87% 30.27 in 10.0 miles Calm Calm - N/A   Overcast
1:53 AM 42.1°F 39.0°F 89% 30.28 in 10.0 miles Calm Calm - N/A   Overcast
2:35 AM 39.2°F 37.4°F 93% 30.28 in 8.0 miles Calm Calm - N/A   Mostly Cloudy
2:53 AM 37.9°F 36.0°F 93% 30.30 in 8.0 miles West 3.5 mph - N/A   Mostly Cloudy
3:01 AM 37.4°F 35.6°F 93% 30.28 in 8.0 miles Calm Calm - N/A   Scattered Clouds
3:47 AM 37.4°F 35.6°F 93% 30.29 in 1.8 miles Calm Calm - N/A   Clear
3:48 AM 37.0°F 35.1°F 93% 30.30 in 1.5 miles Calm Calm - N/A   Clear
4:02 AM 37.4°F 35.6°F 93% 30.29 in 3.0 miles Calm Calm - N/A   Partly Cloudy
4:53 AM 37.0°F 35.1°F 93% 30.31 in 6.0 miles Calm Calm - N/A   Clear
5:08 AM 35.6°F 33.8°F 93% 30.30 in 2.0 miles NNW 3.5 mph - N/A   Partly Cloudy
5:10 AM 35.6°F 33.8°F 93% 30.30 in 0.8 miles Calm Calm - N/A   Mist
5:19 AM 35.6°F 35.6°F 100% 30.30 in 0.2 miles Calm Calm - N/A Fog Fog
5:35 AM 35.6°F 35.6°F 100% 30.30 in 0.8 miles Calm Calm - N/A   Overcast
5:44 AM 35.6°F 33.8°F 93% 30.29 in 2.0 miles Calm Calm - N/A   Mostly Cloudy
5:47 AM 35.6°F 33.8°F 93% 30.29 in 4.0 miles Calm Calm - N/A   Scattered Clouds
5:53 AM 37.0°F 34.0°F 89% 30.31 in 6.0 miles Calm Calm - N/A   Scattered Clouds
6:46 AM 35.6°F 33.8°F 93% 30.30 in 1.8 miles Calm Calm - N/A   Partly Cloudy
6:53 AM 35.1°F 33.1°F 92% 30.32 in 2.0 miles Calm Calm - N/A   Scattered Clouds
7:02 AM 35.6°F 33.8°F 93% 30.30 in 10.0 miles Calm Calm - N/A   Scattered Clouds
7:53 AM 36.0°F 34.0°F 93% 30.33 in 10.0 miles Calm Calm - N/A   Partly Cloudy
8:09 AM 35.6°F 33.8°F 93% 30.32 in 2.0 miles NNE 3.5 mph - N/A   Partly Cloudy
8:11 AM 35.6°F 33.8°F 93% 30.32 in 0.8 miles Calm Calm - N/A   Scattered Clouds
8:17 AM 35.6°F 33.8°F 93% 30.32 in 10.0 miles Calm Calm - N/A   Mostly Cloudy
8:23 AM 35.6°F 33.8°F 93% 30.32 in 10.0 miles Calm Calm - N/A   Mostly Cloudy
8:33 AM 35.6°F 35.6°F 100% 30.32 in 10.0 miles Calm Calm - N/A   Mostly Cloudy
8:40 AM 35.6°F 35.6°F 100% 30.32 in 10.0 miles Calm Calm - N/A   Scattered Clouds
8:53 AM 37.0°F 36.0°F 96% 30.34 in 10.0 miles Calm Calm - N/A   Scattered Clouds
9:53 AM 39.9°F 37.9°F 93% 30.36 in 5.0 miles Calm Calm - N/A   Partly Cloudy
10:05 AM 39.2°F 37.4°F 93% 30.34 in 10.0 miles Calm Calm - N/A   Mostly Cloudy
10:53 AM 39.9°F 37.9°F 93% 30.36 in 10.0 miles Calm Calm - N/A   Mostly Cloudy
11:00 AM 41.0°F 37.4°F 87% 30.34 in 10.0 miles Calm Calm - N/A   Scattered Clouds
11:53 AM 44.1°F 37.9°F 79% 30.35 in 10.0 miles Calm Calm - N/A   Partly Cloudy
12:53 PM 45.0°F 37.9°F 76% 30.33 in 10.0 miles North 3.5 mph - N/A   Clear
1:53 PM 43.0°F 37.0°F 80% 30.32 in 10.0 miles North 5.8 mph - N/A   Clear
2:53 PM 43.0°F 37.9°F 82% 30.32 in 10.0 miles NNW 5.8 mph - N/A   Clear
3:53 PM 42.1°F 37.0°F 82% 30.32 in 10.0 miles North 5.8 mph - N/A   Clear
4:53 PM 41.0°F 36.0°F 82% 30.31 in 10.0 miles North 5.8 mph - N/A   Clear
5:53 PM 39.9°F 37.0°F 89% 30.30 in 10.0 miles North 5.8 mph - N/A   Clear
6:06 PM 41.0°F 37.4°F 87% 30.28 in 10.0 miles North 4.6 mph - N/A   Partly Cloudy
6:18 PM 41.0°F 37.4°F 87% 30.27 in 10.0 miles North 4.6 mph - N/A   Mostly Cloudy
6:53 PM 41.0°F 37.9°F 89% 30.29 in 10.0 miles North 5.8 mph - N/A   Overcast
7:39 PM 39.2°F 37.4°F 93% 30.27 in 9.0 miles North 6.9 mph - N/A   Overcast
7:53 PM 39.9°F 37.9°F 93% 30.28 in 9.0 miles North 4.6 mph - N/A   Overcast
8:53 PM 39.9°F 37.9°F 93% 30.27 in 7.0 miles North 4.6 mph - N/A   Overcast
9:17 PM 39.2°F 35.6°F 87% 30.24 in 8.0 miles NNE 5.8 mph - N/A   Partly Cloudy
9:53 PM 37.0°F 34.0°F 89% 30.26 in 10.0 miles NNE 4.6 mph - N/A   Clear
10:53 PM 36.0°F 33.1°F 89% 30.24 in 8.0 miles Calm Calm - N/A   Clear
11:53 PM 35.1°F 33.1°F 92% 30.24 in 10.0 miles North 3.5 mph - N/A   Clear
Moon Phase
Nov. 25 Nov. 28 Dec. 06 Dec. 13 Dec. 20
Sunrise:07:30 AM (PST) Moon Rise:02:48 PM (PST)11/25
Sunset:04:21 PM (PST) Moon Set:04:41 AM (PST)11/25

Copyright © 2014 The Weather Underground, Inc.